Capri, Italy

5:25 AM CEST on April 25, 2018 (GMT +0200)
Capri

Weather History for LIQC - September, 2013

Change the Weather History Date:

Monday, September 23, 2013

  Actual Average (LIRN) Record (LIRN)
Temperature  
Mean Temperature 72 °F -  
Max Temperature 82 °F 76 °F 84 °F (1996)
Min Temperature 62 °F 59 °F 53 °F (2008)
Cooling Degree Days 7    
Growing Degree Days 22 (Base 50)    
Moisture  
Dew Point 55 °F    
Average Humidity 59    
Maximum Humidity 88    
Minimum Humidity 30    
Precipitation  
Precipitation 0.00 in - - ()
Sea Level Pressure  
Sea Level Pressure 30.14 in    
Wind  
Wind Speed 2 mph ()    
Max Wind Speed 6 mph    
Max Gust Speed -    
Visibility 12.0 miles    
Events      
Averages and records for this station are not official NWS values.
T = Trace of Precipitation, MM = Missing Value Source: Averaged Metar Reports

Daily Weather History Graph

Daily Weather History Graph

Search for Another Location

Airport or City:

Astronomy

Sep. 23, 2013 Rise Set
Actual Time 6:51 AM CEST 6:58 PM CEST
Civil Twilight 6:24 AM CEST 7:25 PM CEST
Nautical Twilight 5:52 AM CEST 7:57 PM CEST
Astronomical Twilight 5:20 AM CEST 8:30 PM CEST
Moon 9:17 PM CEST (9/23) 10:55 AM CEST (9/23)
Length of Visible Light 13h 01m
Length of Day
12h 07m
Waning Gibbous, 83% of the Moon is Illuminated
Sep 23
Waning Gibbous
Sep 27
Last Quarter
Oct 5
New
Oct 12
First Quarter
Oct 19
Full

Hourly Weather History & Observations

Time (CEST) Temp. Heat Index Dew Point Humidity Pressure Visibility Wind Dir Wind Speed Gust Speed Precip Events Conditions
12:55 AM 66.2 °F - 46.4 °F 49% 30.15 in - North - - N/A   Clear
1:55 AM 64.4 °F - 48.2 °F 56% 30.15 in - North - - N/A   Clear
2:00 AM 65 °F - 48 °F 43% 30.16 in 12 mi 1.2 mph - -   Scattered Clouds
5:00 AM 63 °F - 48 °F 47% 30.15 in 12 mi 1.2 mph - -   Partly Cloudy
6:55 AM 62.6 °F - 50.0 °F 63% 30.15 in - North - - N/A   Scattered Clouds
7:55 AM 62.6 °F - 51.8 °F 68% 30.15 in - North - - N/A   Scattered Clouds
8:00 AM 63 °F - 52 °F 59% 30.15 in 12 mi 4.6 mph - -   Partly Cloudy
8:55 AM 64.4 °F - 51.8 °F 64% 30.15 in - North - - N/A   Clear
9:55 AM 64.4 °F - 53.6 °F 68% 30.15 in - North - - N/A   Clear
10:55 AM 68.0 °F - 53.6 °F 60% 30.15 in - North - - N/A   Clear
11:00 AM 68 °F - 54 °F 51% 30.16 in 12 mi 2.3 mph - -  
11:55 AM 68.0 °F - 53.6 °F 60% 30.15 in - North - - N/A   Clear
12:55 PM 69.8 °F - 53.6 °F 56% 30.15 in - North - - N/A   Clear
1:55 PM 69.8 °F - 53.6 °F 56% 30.15 in - North - - N/A   Clear
2:00 PM 70 °F - 54 °F 47% 30.15 in 12 mi 2.3 mph - -  
2:55 PM 69.8 °F - 53.6 °F 56% 30.15 in - North - - N/A   Clear
4:55 PM 80.6 °F 80.5 °F 55.4 °F 42% 30.12 in - North - - N/A   Clear
5:00 PM 81 °F - 55 °F 30% 30.11 in 12 mi 5.8 mph - -  
5:55 PM 82.4 °F 82.0 °F 57.2 °F 42% 30.12 in - North - - N/A   Clear
6:55 PM 77.0 °F - 57.2 °F 50% 30.12 in - North - - N/A   Clear
7:55 PM 71.6 °F - 60.8 °F 69% 30.12 in - North - - N/A   Clear
8:00 PM 71 °F - 62 °F 64% 30.12 in 12 mi 3.5 mph - -  
8:55 PM 69.8 °F - 60.8 °F 73% 30.12 in - North - - N/A   Clear
9:55 PM 68.0 °F - 62.6 °F 83% 30.12 in - North - - N/A   Clear
10:55 PM 68.0 °F - 62.6 °F 83% 30.12 in - North - - N/A   Clear
11:00 PM 68 °F - 63 °F 79% 30.12 in 12 mi 2.3 mph - -  
11:55 PM 68.0 °F - 64.4 °F 88% 30.12 in - North - - N/A   Clear